• In Hungary
  • List of Countries
  • For 7 days
  • Water Temperature
  • Satellite Maps
  • Weather Map
  • News
  • Weather Widgets
  • user-avatar
    Login

    Hourly Weather Pekanbaru

    Today, 24 September, Sunday

    Time Temperature Precipitation Wind Pressure Humidity
    00:00 +25°C° 0.2 mm 0 mps 757 mmHg 81%
    01:00 +25°C° 0 mm 0 mps 757 mmHg 90%
    02:00 +24°C° 0.1 mm 0 mps 757 mmHg 90%
    03:00 +24°C° 0.1 mm 0 mps 757 mmHg 91%
    04:00 +24°C° 0.1 mm 0 mps 756 mmHg 92%
    05:00 +24°C° 0.2 mm 0 mps 756 mmHg 91%
    06:00 +24°C° 0.2 mm 0 mps 756 mmHg 91%
    07:00 +24°C° 0.2 mm 0 mps 757 mmHg 91%
    08:00 +26°C° 0.1 mm 0 mps 757 mmHg 85%
    09:00 +29°C° 0.1 mm 1 mps 757 mmHg 79%
    10:00 +30°C° 0.1 mm 1 mps 757 mmHg 72%
    11:00 +31°C° 0 mm 1 mps 757 mmHg 67%
    12:00 +33°C° 0 mm 1 mps 756 mmHg 61%
    13:00 +34°C° 0 mm 1 mps 755 mmHg 55%
    14:00 +34°C° 0 mm 1 mps 755 mmHg 54%
    15:00 +34°C° 0 mm 1 mps 754 mmHg 53%
    16:00 +34°C° 0 mm 1 mps 754 mmHg 53%
    17:00 +33°C° 0 mm 1 mps 754 mmHg 60%
    18:00 +31°C° 0 mm 1 mps 754 mmHg 67%
    19:00 +29°C° 0 mm 1 mps 755 mmHg 74%
    20:00 +29°C° 0.8 mm 1 mps 755 mmHg 79%
    21:00 +28°C° 0.8 mm 1 mps 756 mmHg 84%
    22:00 +27°C° 0.8 mm 1 mps 757 mmHg 90%
    23:00 +25°C° 0.8 mm 0 mps 757 mmHg 91%

    Tomorrow, 25 September, Monday

    Time Temperature Precipitation Wind Pressure Humidity
    00:00 +25°C° 0.8 mm 0 mps 756 mmHg 93%
    01:00 +24°C° 0.8 mm 0 mps 756 mmHg 95%
    02:00 +24°C° 1.2 mm 0 mps 756 mmHg 95%
    03:00 +24°C° 1.2 mm 0 mps 756 mmHg 95%
    04:00 +24°C° 1.2 mm 0 mps 755 mmHg 95%
    05:00 +24°C° 0.1 mm 0 mps 755 mmHg 95%
    06:00 +24°C° 0.1 mm 0 mps 756 mmHg 94%
    07:00 +25°C° 0.1 mm 0 mps 756 mmHg 94%
    08:00 +26°C° 0.3 mm 0 mps 756 mmHg 87%
    09:00 +28°C° 0.3 mm 0 mps 757 mmHg 79%
    10:00 +32°C° 0.3 mm 1 mps 757 mmHg 72%
    11:00 +33°C° 0.4 mm 1 mps 756 mmHg 67%
    12:00 +34°C° 0.4 mm 1 mps 756 mmHg 62%
    13:00 +34°C° 0.4 mm 1 mps 755 mmHg 57%
    14:00 +34°C° 0.1 mm 1 mps 754 mmHg 59%
    15:00 +33°C° 0.1 mm 1 mps 754 mmHg 61%
    16:00 +33°C° 0.1 mm 1 mps 753 mmHg 63%
    17:00 +31°C° 0.9 mm 1 mps 753 mmHg 73%
    18:00 +29°C° 0.9 mm 1 mps 754 mmHg 82%
    19:00 +27°C° 0.9 mm 1 mps 754 mmHg 92%
    20:00 +27°C° 0.3 mm 1 mps 755 mmHg 92%
    21:00 +27°C° 0.3 mm 1 mps 756 mmHg 92%
    22:00 +25°C° 0.3 mm 0 mps 757 mmHg 93%
    23:00 +25°C° 0.7 mm 0 mps 756 mmHg 93%

    Day after tomorrow, 26 September, Tuesday

    Time Temperature Precipitation Wind Pressure Humidity
    00:00 +25°C° 0.7 mm 0 mps 756 mmHg 93%
    01:00 +24°C° 0.7 mm 0 mps 756 mmHg 93%
    02:00 +24°C° 0.3 mm 0 mps 756 mmHg 94%
    03:00 +24°C° 0.3 mm 0 mps 755 mmHg 94%
    04:00 +24°C° 0.3 mm 0 mps 755 mmHg 94%
    05:00 +24°C° 0 mm 0 mps 755 mmHg 94%
    06:00 +24°C° 0 mm 0 mps 756 mmHg 93%
    07:00 +25°C° 0 mm 0 mps 756 mmHg 93%
    08:00 +27°C° 0.1 mm 0 mps 757 mmHg 84%
    09:00 +31°C° 0.1 mm 1 mps 757 mmHg 75%
    10:00 +33°C° 0.1 mm 1 mps 758 mmHg 66%
    11:00 +33°C° 0.4 mm 1 mps 757 mmHg 63%
    12:00 +34°C° 0.4 mm 1 mps 756 mmHg 59%
    13:00 +35°C° 0.4 mm 1 mps 755 mmHg 56%
    14:00 +35°C° 0 mm 1 mps 754 mmHg 56%
    15:00 +33°C° 0 mm 0 mps 754 mmHg 55%
    16:00 +33°C° 0 mm 0 mps 753 mmHg 55%
    17:00 +31°C° 0.2 mm 0 mps 754 mmHg 63%
    18:00 +29°C° 0.2 mm 0 mps 755 mmHg 72%
    19:00 +29°C° 0.2 mm 1 mps 755 mmHg 80%
    20:00 +28°C° 0.3 mm 1 mps 756 mmHg 84%
    21:00 +28°C° 0.3 mm 1 mps 756 mmHg 88%
    22:00 +27°C° 0.3 mm 1 mps 757 mmHg 92%
    23:00 +27°C° 0.1 mm 1 mps 757 mmHg 93%

    27 September, Wednesday

    Time Temperature Precipitation Wind Pressure Humidity
    00:00 +25°C° 0.1 mm 0 mps 756 mmHg 94%
    01:00 +24°C° 0.1 mm 0 mps 756 mmHg 95%
    02:00 +24°C° 0.3 mm 0 mps 756 mmHg 96%
    03:00 +24°C° 0.3 mm 0 mps 756 mmHg 97%
    04:00 +24°C° 0.3 mm 0 mps 755 mmHg 97%
    05:00 +24°C° 0.5 mm 0 mps 756 mmHg 96%
    06:00 +24°C° 0.5 mm 0 mps 757 mmHg 95%
    07:00 +24°C° 0.5 mm 0 mps 757 mmHg 95%
    08:00 +28°C° 0.8 mm 1 mps 758 mmHg 88%
    09:00 +30°C° 0.8 mm 1 mps 758 mmHg 81%
    10:00 +32°C° 0.8 mm 1 mps 758 mmHg 74%
    11:00 +34°C° 0.1 mm 1 mps 757 mmHg 65%
    12:00 +36°C° 0.1 mm 1 mps 756 mmHg 56%
    13:00 +39°C° 0.1 mm 1 mps 755 mmHg 47%
    14:00 +37°C° 0.2 mm 1 mps 754 mmHg 50%
    15:00 +36°C° 0.2 mm 1 mps 754 mmHg 54%
    16:00 +35°C° 0.2 mm 1 mps 753 mmHg 57%
    17:00 +33°C° 0.2 mm 1 mps 754 mmHg 65%
    18:00 +31°C° 0.2 mm 1 mps 755 mmHg 73%
    19:00 +29°C° 0.2 mm 1 mps 755 mmHg 82%
    20:00 +28°C° 1.2 mm 1 mps 756 mmHg 86%
    21:00 +25°C° 1.2 mm 0 mps 757 mmHg 90%
    22:00 +25°C° 1.2 mm 0 mps 757 mmHg 94%
    23:00 +25°C° 0.9 mm 0 mps 757 mmHg 94%

    28 September, Thursday

    Time Temperature Precipitation Wind Pressure Humidity
    00:00 +24°C° 0.9 mm 0 mps 756 mmHg 95%
    01:00 +24°C° 0.9 mm 0 mps 756 mmHg 96%
    02:00 +24°C° 2.8 mm 0 mps 756 mmHg 96%
    03:00 +24°C° 2.8 mm 0 mps 756 mmHg 96%
    04:00 +26°C° 2.8 mm 1 mps 756 mmHg 96%
    05:00 +24°C° 0.3 mm 0 mps 756 mmHg 95%
    06:00 +24°C° 0.3 mm 0 mps 757 mmHg 94%
    07:00 +25°C° 0.3 mm 0 mps 757 mmHg 94%
    08:00 +29°C° 0.2 mm 1 mps 757 mmHg 84%
    09:00 +31°C° 0.2 mm 1 mps 757 mmHg 75%
    10:00 +33°C° 0.2 mm 1 mps 757 mmHg 65%
    11:00 +34°C° 0.6 mm 1 mps 757 mmHg 62%
    12:00 +35°C° 0.6 mm 1 mps 756 mmHg 58%
    13:00 +36°C° 0.6 mm 1 mps 755 mmHg 55%
    14:00 +34°C° 0.3 mm 0 mps 754 mmHg 55%
    15:00 +33°C° 0.3 mm 0 mps 754 mmHg 56%
    16:00 +33°C° 0.3 mm 0 mps 753 mmHg 56%
    17:00 +33°C° 0.5 mm 1 mps 754 mmHg 66%
    18:00 +31°C° 0.5 mm 1 mps 755 mmHg 75%
    19:00 +29°C° 0.5 mm 1 mps 755 mmHg 84%
    20:00 +28°C° 1.3 mm 1 mps 756 mmHg 87%
    21:00 +28°C° 1.3 mm 1 mps 757 mmHg 90%
    22:00 +27°C° 1.3 mm 1 mps 757 mmHg 93%
    23:00 +27°C° 1.6 mm 1 mps 757 mmHg 94%

    29 September, Friday

    Time Temperature Precipitation Wind Pressure Humidity
    00:00 +27°C° 1.6 mm 1 mps 756 mmHg 94%
    01:00 +27°C° 1.6 mm 1 mps 756 mmHg 95%
    02:00 +26°C° 1.1 mm 1 mps 756 mmHg 95%
    03:00 +24°C° 1.1 mm 0 mps 756 mmHg 95%
    04:00 +24°C° 1.1 mm 0 mps 756 mmHg 96%
    05:00 +24°C° 1.2 mm 0 mps 756 mmHg 95%
    06:00 +24°C° 1.2 mm 0 mps 757 mmHg 95%
    07:00 +24°C° 1.2 mm 0 mps 757 mmHg 94%
    08:00 +28°C° 1.5 mm 1 mps 758 mmHg 92%
    09:00 +29°C° 1.5 mm 1 mps 758 mmHg 89%
    10:00 +30°C° 1.5 mm 1 mps 758 mmHg 86%
    11:00 +30°C° 1 mm 1 mps 757 mmHg 85%
    12:00 +30°C° 1 mm 1 mps 756 mmHg 83%
    13:00 +30°C° 1 mm 1 mps 756 mmHg 82%
    14:00 +28°C° 1.5 mm 0 mps 755 mmHg 81%
    15:00 +28°C° 1.5 mm 0 mps 755 mmHg 81%
    16:00 +28°C° 1.5 mm 0 mps 755 mmHg 81%
    17:00 +27°C° 0.3 mm 0 mps 755 mmHg 84%
    18:00 +26°C° 0.3 mm 0 mps 756 mmHg 88%
    19:00 +25°C° 0.3 mm 0 mps 756 mmHg 91%
    20:00 +25°C° 0.2 mm 0 mps 757 mmHg 92%
    21:00 +25°C° 0.2 mm 0 mps 757 mmHg 92%
    22:00 +24°C° 0.2 mm 0 mps 758 mmHg 93%
    23:00 +24°C° 0.4 mm 0 mps 757 mmHg 94%
    Show more